SCOUT A R/B, 2120

Orbit data source: Space-Track

SCOUT A R/B, 2120 is space debris in LEO originally from a launch on Sat, 26 Mar 1966 UTC launched from the Air Force Western Test Range (AFWTR). Debris objects in space refer to the collection of defunct objects orbiting the Earth. Examples of debris include non-operational satellites, rocket bodies, and fragments generated from explosions, collisions, or faulty payload assembly.

Loading next visibility...
Identifier
2120, 1966-024B
Orbit
LEO
Country
Flag of USUS
Related business
Manufacturer
ABL
Mission
Spacecraft
Bus & Motor
ALTAIR, Unknown motor
Mass
33 kg wet, 33 kg dry
Launch date (UTC)
1966-03-26 (59 years ago)
Launch vehicle
Unknown
Launch site
Air Force Western Test Range (AFWTR)
Object type
Payload
Rocket body
Debris
Shape & HBR
Cyl, 0.8 m
Radar Cross Section
0.687 m², Medium (>0.1 m² and < 1m²)

Expand to show TLE details & history
Last TLE update: 14 hours ago

TLE from 14 hours ago
0 SCOUT A R/B
1 02120U 66024B   25242.81461889  .00000226  00000-0  21704-3 0  9990
2 02120  89.8218 177.3644 0152521   9.0340 351.3511 13.72568572972088
Epoch: 2025-08-30T19:33Z
TLE epoch observation values (Epoch: 2025-08-30T19:33:03.072Z)
Latitude
-0.00003°
Longitude
-95.14191°
Altitude
882.261 km
Speed
7.467 km/s
True Right ascension
11h 49m 27s
True Declination
0° 00' 00"
Sunlit
Object was in daylight at epoch
Visualization orbit readout
Latitude
Unknown
Longitude
Unknown
Altitude
Unknown
Speed
Unknown
Apparent Right ascension
Unknown
Apparent Declination
Unknown
Sunlit
N/A
Visualization observer readout
Local Sidereal Time
00:48:18
Azimuth
Unknown
Elevation
Unknown
Doppler factor
Unknown
Orbital elements
Apogee altitude
1,099.719 km
Perigee altitude
875.04 km
Semi-major axis
7,365.517 km
Eccentricity
0.01525
Inclination
89.8218°
RAAN
177.3644°
Arg. of periapsis
9.034°
True anomaly
351.08323°
Mean anomaly
351.3511°
Eccentric anomaly
351.21768°
Mean motion
3.43351 °/min
Orbital period
104.85 mins
BSTAR
0.00021704
Loading maneuver chart data...
Computing Atmospheric mass density...
Loading historical data...
Loading historical data...
Loading historical data...
Loading historical data...
Loading historical data...
Loading historical data...
Loading historical data...

Documentation

Showing up to 5 results
|